Weather History for LHPA - May, 2013

Change the Weather History Date:

Saturday, May 25, 2013

  Actual Average Record
Temperature  
Mean Temperature 53 °F -  
Max Temperature 60 °F - - ()
Min Temperature 46 °F - - ()
Degree Days  
Heating Degree Days 12    
Growing Degree Days 3 (Base 50)    
Moisture  
Dew Point 44 °F    
Average Humidity 73    
Maximum Humidity 94    
Minimum Humidity 51    
Precipitation  
Precipitation 0.00 in - - ()
Sea Level Pressure  
Sea Level Pressure 29.78 in    
Wind  
Wind Speed 6 mph ()    
Max Wind Speed 9 mph    
Max Gust Speed -    
Visibility 6.0 miles    
Events Rain    
T = Trace of Precipitation, MM = Missing Value Source: Averaged Metar Reports

Daily Weather History Graph

Daily Weather History Graph

Search for Another Location

Airport or City:

Trip Planner

Search our weather history database for the weather conditions in past years. The results will help you decide how hot, cold, wet, or windy it might be!

Date:

Astronomy

May. 25, 2013 Rise Set
Actual Time 5:02 AM CEST 8:31 PM CEST
Civil Twilight 4:24 AM CEST 9:09 PM CEST
Nautical Twilight 3:34 AM CEST 10:00 PM CEST
Astronomical Twilight 2:28 AM CEST 11:07 PM CEST
Moon 8:59 PM CEST (5/25) 5:14 AM CEST (5/25)
Length of Visible Light 16h 45m
Length of Day
15h 28m
Full, 100% of the Moon is Illuminated
May 25
Full
May 31
Last Quarter
Jun 8
New
Jun 16
First Quarter
Jun 23
Full

Hourly Weather History & Observations

Time (CEST) Temp. Windchill Dew Point Humidity Pressure Visibility Wind Dir Wind Speed Gust Speed Precip Events Conditions
12:15 AM 50.0 °F - 42.8 °F 76% 29.77 in - NNW 8.9 mph - N/A   Clear
12:45 AM 50.0 °F - 42.8 °F 76% 29.77 in - NNW 6.7 mph - N/A   Clear
1:15 AM 50.0 °F - 42.8 °F 76% 29.77 in - NNW 6.7 mph - N/A   Clear
1:45 AM 48.2 °F - 42.8 °F 82% 29.77 in - NNW 6.7 mph - N/A   Clear
2:15 AM 48.2 °F - 44.6 °F 87% 29.77 in - NW 6.7 mph - N/A   Clear
2:45 AM 48.2 °F - 42.8 °F 82% 29.77 in - NW 4.5 mph - N/A   Clear
3:15 AM 48.2 °F - 42.8 °F 82% 29.77 in - NNW 4.5 mph - N/A   Clear
3:45 AM - - - N/A% - 3.7 mi NNW 6.7 mph - N/A Rain Rain Showers
4:15 AM 46.4 °F - 42.8 °F 87% 29.77 in - North 2.2 mph - N/A   Clear
4:45 AM 46.4 °F - 42.8 °F 87% 29.77 in 6.2 mi West 2.2 mph - N/A   Mostly Cloudy
5:15 AM 48.2 °F - 44.6 °F 87% 29.77 in 6.2 mi WNW 2.2 mph - N/A   Mostly Cloudy
5:45 AM 48.2 °F - 42.8 °F 82% 29.77 in 6.2 mi WNW 4.5 mph - N/A   Mostly Cloudy
6:15 AM 46.4 °F 44.4 °F 42.8 °F 87% 29.77 in 6.2 mi NW 4.5 mph - N/A   Mostly Cloudy
6:45 AM - - - N/A% - 3.7 mi NNW 6.7 mph - N/A Rain Light Rain
7:15 AM 48.2 °F - 44.6 °F 87% 29.77 in 6.2 mi WSW 2.2 mph - N/A   Mostly Cloudy
7:45 AM 50.0 °F - 44.6 °F 82% 29.77 in 6.2 mi NNW 4.5 mph - N/A   Mostly Cloudy
8:15 AM 50.0 °F - 44.6 °F 82% 29.77 in 6.2 mi NNW 6.7 mph - N/A   Mostly Cloudy
8:45 AM 53.6 °F - 44.6 °F 72% 29.80 in 6.2 mi NW 8.9 mph - N/A   Mostly Cloudy
9:15 AM 51.8 °F - 44.6 °F 76% 29.80 in 6.2 mi NW 6.7 mph - N/A   Mostly Cloudy
9:45 AM - - - N/A% - 6.2 mi NNW 8.9 mph - N/A   Mostly Cloudy
10:15 AM 53.6 °F - 44.6 °F 72% 29.80 in 6.2 mi NW 8.9 mph - N/A   Mostly Cloudy
10:45 AM 53.6 °F - 44.6 °F 72% 29.80 in 6.2 mi NW 6.7 mph - N/A   Mostly Cloudy
11:15 AM 53.6 °F - 44.6 °F 72% 29.80 in 6.2 mi WNW 8.9 mph - N/A   Mostly Cloudy
11:45 AM 55.4 °F - 44.6 °F 67% 29.80 in 6.2 mi WNW 8.9 mph - N/A   Mostly Cloudy
12:15 PM 55.4 °F - 46.4 °F 72% 29.80 in 6.2 mi WNW 8.9 mph - N/A   Mostly Cloudy
12:45 PM - - - N/A% - 6.2 mi NW 8.9 mph - N/A   Mostly Cloudy
1:15 PM 55.4 °F - 44.6 °F 67% 29.80 in 6.2 mi WNW 6.7 mph - N/A   Mostly Cloudy
1:45 PM 57.2 °F - 44.6 °F 63% 29.80 in 6.2 mi WNW 6.7 mph - N/A   Mostly Cloudy
2:15 PM 57.2 °F - 44.6 °F 63% 29.80 in 6.2 mi NW 6.7 mph - N/A   Mostly Cloudy
2:45 PM 57.2 °F - 42.8 °F 59% 29.80 in 6.2 mi NNW 6.7 mph - N/A   Scattered Clouds
3:15 PM 59.0 °F - 42.8 °F 55% 29.80 in 6.2 mi NW 4.5 mph - N/A   Mostly Cloudy
3:45 PM - - - N/A% - 6.2 mi Variable 4.5 mph - N/A   Mostly Cloudy
4:15 PM 59.0 °F - 42.8 °F 55% 29.77 in 6.2 mi NNW 6.7 mph - N/A   Mostly Cloudy
4:45 PM 59.0 °F - 42.8 °F 55% 29.77 in 6.2 mi NNW 8.9 mph - N/A   Mostly Cloudy
5:15 PM 60.8 °F - 44.6 °F 55% 29.77 in - NNW 6.7 mph - N/A   Clear
5:45 PM 59.0 °F - 42.8 °F 55% 29.77 in - NNW 4.5 mph - N/A   Clear
6:15 PM 59.0 °F - 41.0 °F 51% 29.77 in - NNW 4.5 mph - N/A   Clear
6:45 PM - - - N/A% - 6.2 mi Variable 4.5 mph - N/A   Clear
7:15 PM 57.2 °F - 42.8 °F 59% 29.77 in - North 6.7 mph - N/A   Clear
7:45 PM 55.4 °F - 42.8 °F 63% 29.77 in - NNW 6.7 mph - N/A   Clear
8:15 PM 55.4 °F - 44.6 °F 67% 29.77 in - NNW 6.7 mph - N/A   Clear
8:45 PM 53.6 °F - 44.6 °F 72% 29.77 in - NNW 2.2 mph - N/A   Clear
9:15 PM 51.8 °F - 46.4 °F 82% 29.77 in - SSW 2.2 mph - N/A   Clear
9:45 PM - - - N/A% - 6.2 mi Variable 4.5 mph - N/A   Overcast
10:15 PM 50.0 °F - 48.2 °F 94% 29.80 in - WSW 2.2 mph - N/A   Clear
10:45 PM 51.8 °F - 48.2 °F 88% 29.80 in - NW 4.5 mph - N/A   Clear
11:15 PM 51.8 °F - 44.6 °F 76% 29.80 in - North 4.5 mph - N/A   Clear
11:45 PM 51.8 °F - 44.6 °F 76% 29.80 in 6.2 mi North 4.5 mph - N/A   Mostly Cloudy